Location: Winnipeg
(49.8830°N, 97.1670°W)
Time: 18:51:01
(UTC-06:00)

ISS - Pass Details

Date: 24 January 2021
Orbit: 417 x 422 km, 51.6° (Epoch: 06 March)

Event Time Altitude Azimuth Distance (km) Brightness Sun altitude
Rises 17:52:43 0° 233° (SW) 2,363 1.9 -7.0°
Reaches altitude 10° 17:54:51 10° 228° (SW) 1,503 0.4 -7.3°
Maximum altitude 17:58:07 49° 153° (SSE) 555 -3.2 -7.8°
Enters shadow 18:01:15 11° 78° (ENE) 1,448 -1.7 -8.2°
